| time (UTC) | temp F | wind direction | speed MPH | gust MPH | rain 1hr in | rain 24hr in | rain mn in | humidity % | barometer mb |
| 20260509041616 | 59 | 124 | 1.0 | 3.0 | 0.00 | 0.00 | 0.00 | 20 | 1006.7 |
| 20260509040050 | 59 | 130 | 1.0 | 4.0 | 0.00 | 0.00 | 0.00 | 22 | 1006.3 |
| 20260509034547 | 59 | 117 | 0.0 | 3.0 | 0.00 | 0.00 | 0.00 | 25 | 1005.9 |
| 20260509033046 | 59 | 94 | 0.0 | 2.0 | 0.00 | 0.00 | 0.00 | 32 | 1006.0 |
| 20260509031543 | 59 | 92 | 0.0 | 2.0 | 0.00 | 0.00 | 0.00 | 58 | 1005.7 |
| 20260509030045 | 60 | 92 | 1.0 | 3.0 | 0.00 | 0.00 | 0.00 | 53 | 1005.6 |
| 20260509024540 | 60 | 92 | 0.0 | 3.0 | 0.00 | 0.00 | 0.00 | 45 | 1005.2 |
| 20260509023046 | 59 | 105 | 1.0 | 4.0 | 0.00 | 0.00 | 0.00 | 71 | 1005.3 |
| 20260509021537 | 59 | 116 | 1.0 | 6.0 | 0.00 | 0.00 | 0.00 | 71 | 1005.1 |
| 20260509020044 | 60 | 108 | 3.0 | 7.0 | 0.00 | 0.00 | 0.00 | 69 | 1005.4 |
| 20260509014532 | 60 | 93 | 4.0 | 10.0 | 0.00 | 0.00 | 0.00 | 69 | 1005.1 |
| 20260509013037 | 61 | 105 | 4.0 | 10.0 | 0.00 | 0.00 | 0.00 | 66 | 1005.2 |
| 20260509011524 | 63 | 94 | 3.0 | 9.0 | 0.00 | 0.00 | 0.00 | 63 | 1005.5 |
| 20260509010022 | 64 | 82 | 4.0 | 10.0 | 0.00 | 0.00 | 0.00 | 58 | 1005.6 |
| 20260509004519 | 65 | 91 | 5.0 | 11.0 | 0.00 | 0.00 | 0.00 | 54 | 1005.9 |
| 20260509003014 | 65 | 88 | 4.0 | 12.0 | 0.00 | 0.00 | 0.00 | 49 | 1005.9 |
| 20260509001510 | 65 | 86 | 6.0 | 14.0 | 0.00 | 0.00 | 0.00 | 49 | 1006.1 |
| 20260509000007 | 66 | 95 | 5.0 | 12.0 | 0.00 | 0.00 | 0.00 | 42 | 1006.4 |
| 20260508234505 | 66 | 109 | 4.0 | 13.0 | 0.00 | 0.00 | 0.00 | 39 | 1006.4 |
| 20260508233001 | 67 | 64 | 3.0 | 13.0 | 0.00 | 0.00 | 0.00 | 38 | 1006.3 |
| 20260508231558 | 67 | 84 | 4.0 | 9.0 | 0.00 | 0.00 | 0.00 | 35 | 1006.6 |
| 20260508230059 | 66 | 82 | 7.0 | 14.0 | 0.00 | 0.00 | 0.00 | 36 | 1006.7 |
| 20260508224554 | 67 | 53 | 4.0 | 8.0 | 0.00 | 0.00 | 0.00 | 35 | 1006.7 |
| 20260508223052 | 67 | 91 | 4.0 | 11.0 | 0.00 | 0.00 | 0.00 | 35 | 1007.0 |
| 20260508221550 | 67 | 70 | 5.0 | 11.0 | 0.00 | 0.00 | 0.00 | 34 | 1006.8 |
| 20260508220048 | 66 | 89 | 5.0 | 11.0 | 0.00 | 0.00 | 0.00 | 35 | 1007.1 |
| 20260508214545 | 66 | 104 | 4.0 | 10.0 | 0.00 | 0.00 | 0.00 | 29 | 1007.2 |
| 20260508213044 | 67 | 80 | 4.0 | 8.0 | 0.00 | 0.00 | 0.00 | 34 | 1007.4 |
| 20260508211541 | 67 | 72 | 4.0 | 10.0 | 0.00 | 0.00 | 0.00 | 32 | 1007.2 |
| 20260508210037 | 67 | 73 | 2.0 | 7.0 | 0.00 | 0.00 | 0.00 | 29 | 1007.5 |
| 20260508204538 | 67 | 96 | 2.0 | 8.0 | 0.00 | 0.00 | 0.00 | 28 | 1007.7 |
| 20260508203038 | 66 | 105 | 3.0 | 8.0 | 0.00 | 0.00 | 0.00 | 28 | 1007.6 |
| 20260508201529 | 65 | 101 | 3.0 | 7.0 | 0.00 | 0.00 | 0.00 | 32 | 1007.8 |
| 20260508200026 | 64 | 100 | 3.0 | 10.0 | 0.00 | 0.00 | 0.00 | 36 | 1007.7 |
| 20260508194532 | 65 | 106 | 4.0 | 8.0 | 0.00 | 0.00 | 0.00 | 36 | 1007.8 |
| 20260508193023 | 65 | 69 | 5.0 | 10.0 | 0.00 | 0.00 | 0.00 | 36 | 1008.1 |
| 20260508191526 | 66 | 101 | 4.0 | 8.0 | 0.00 | 0.00 | 0.00 | 33 | 1008.1 |
| 20260508190016 | 66 | 69 | 4.0 | 8.0 | 0.00 | 0.00 | 0.00 | 28 | 1007.9 |
| 20260508184514 | 67 | 64 | 3.0 | 6.0 | 0.00 | 0.00 | 0.00 | 24 | 1008.2 |
| 20260508183020 | 65 | 92 | 2.0 | 8.0 | 0.00 | 0.00 | 0.00 | 23 | 1008.4 |
| 20260508181509 | 65 | 70 | 2.0 | 9.0 | 0.00 | 0.00 | 0.00 | 26 | 1008.2 |
| 20260508180012 | 66 | 57 | 2.0 | 6.0 | 0.00 | 0.00 | 0.00 | 28 | 1008.2 |
| 20260508174503 | 65 | 91 | 4.0 | 8.0 | 0.00 | 0.00 | 0.00 | 29 | 1008.2 |
| 20260508173003 | 65 | 91 | 4.0 | 9.0 | 0.00 | 0.00 | 0.00 | 27 | 1008.1 |
| 20260508171558 | 65 | 72 | 3.0 | 9.0 | 0.00 | 0.00 | 0.00 | 24 | 1008.2 |
| 20260508170058 | 64 | 99 | 3.0 | 10.0 | 0.00 | 0.00 | 0.00 | 25 | 1007.9 |
| 20260508164552 | 64 | 91 | 3.0 | 10.0 | 0.00 | 0.00 | 0.00 | 26 | 1008.1 |
| 20260508163050 | 64 | 101 | 2.0 | 9.0 | 0.00 | 0.00 | 0.00 | 25 | 1008.2 |
| 20260508161547 | 64 | 77 | 4.0 | 8.0 | 0.00 | 0.00 | 0.00 | 25 | 1008.0 |
| 20260508160041 | 63 | 105 | 3.0 | 6.0 | 0.00 | 0.00 | 0.00 | 25 | 1008.2 |
| 20260508154601 | 63 | 105 | 5.0 | 9.0 | 0.00 | 0.00 | 0.00 | 25 | 1008.1 |
| 20260508153036 | 63 | 115 | 3.0 | 8.0 | 0.00 | 0.00 | 0.00 | 26 | 1008.1 |
| 20260508151533 | 62 | 129 | 1.0 | 6.0 | 0.00 | 0.00 | 0.00 | 29 | 1008.2 |
| 20260508150034 | 61 | 104 | 2.0 | 6.0 | 0.00 | 0.00 | 0.00 | 29 | 1007.9 |
| 20260508144523 | 60 | 117 | 1.0 | 4.0 | 0.00 | 0.00 | 0.00 | 31 | 1008.0 |
| 20260508143017 | 59 | 105 | 0.0 | 4.0 | 0.00 | 0.00 | 0.00 | 32 | 1008.1 |
| 20260508141522 | 57 | 124 | 1.0 | 3.0 | 0.00 | 0.00 | 0.00 | 33 | 1008.0 |
| 20260508140011 | 57 | 103 | 2.0 | 5.0 | 0.00 | 0.00 | 0.00 | 32 | 1007.7 |
| 20260508134512 | 56 | 103 | 3.0 | 6.0 | 0.00 | 0.00 | 0.00 | 33 | 1007.8 |
| 20260508133008 | 56 | 108 | 2.0 | 5.0 | 0.00 | 0.00 | 0.00 | 32 | 1007.7 |
| 20260508131503 | 56 | 120 | 2.0 | 7.0 | 0.00 | 0.00 | 0.00 | 32 | 1007.3 |
| 20260508130001 | 56 | 120 | 2.0 | 6.0 | 0.00 | 0.00 | 0.00 | 32 | 1007.3 |
| 20260508124604 | 56 | 121 | 3.0 | 7.0 | 0.00 | 0.00 | 0.00 | 31 | 1007.3 |
| 20260508123057 | 57 | 124 | 1.0 | 4.0 | 0.00 | 0.00 | 0.00 | 30 | 1007.1 |
| 20260508121556 | 57 | 115 | 0.0 | 5.0 | 0.00 | 0.00 | 0.00 | 31 | 1006.8 |
| 20260508120053 | 57 | 121 | 1.0 | 4.0 | 0.00 | 0.00 | 0.00 | 30 | 1006.9 |
| 20260508114551 | 58 | 122 | 1.0 | 6.0 | 0.00 | 0.00 | 0.00 | 30 | 1006.9 |
| 20260508113049 | 58 | 127 | 2.0 | 6.0 | 0.00 | 0.00 | 0.00 | 31 | 1006.8 |
| 20260508111546 | 58 | 117 | 2.0 | 5.0 | 0.00 | 0.00 | 0.00 | 33 | 1006.7 |
| 20260508110043 | 58 | 101 | 2.0 | 8.0 | 0.00 | 0.00 | 0.00 | 33 | 1006.7 |
| 20260508104540 | 57 | 106 | 2.0 | 7.0 | 0.00 | 0.00 | 0.00 | 35 | 1006.9 |
| 20260508103038 | 57 | 122 | 2.0 | 5.0 | 0.00 | 0.00 | 0.00 | 35 | 1006.9 |
| 20260508101535 | 57 | 115 | 2.0 | 6.0 | 0.00 | 0.00 | 0.00 | 35 | 1006.8 |
| 20260508100033 | 57 | 117 | 2.0 | 5.0 | 0.00 | 0.00 | 0.00 | 37 | 1006.7 |
| 20260508094530 | 57 | 106 | 2.0 | 8.0 | 0.00 | 0.00 | 0.00 | 37 | 1006.9 |
| 20260508093029 | 57 | 101 | 2.0 | 7.0 | 0.00 | 0.00 | 0.00 | 38 | 1007.0 |
| 20260508091525 | 57 | 117 | 2.0 | 5.0 | 0.00 | 0.00 | 0.00 | 38 | 1006.8 |
| 20260508090042 | 57 | 90 | 2.0 | 7.0 | 0.00 | 0.00 | 0.00 | 39 | 1007.1 |
| 20260508084520 | 57 | 107 | 1.0 | 5.0 | 0.00 | 0.00 | 0.00 | 39 | 1007.4 |
| 20260508083020 | 57 | 136 | 1.0 | 4.0 | 0.00 | 0.00 | 0.00 | 38 | 1007.4 |
| 20260508081514 | 57 | 146 | 2.0 | 5.0 | 0.00 | 0.00 | 0.00 | 37 | 1007.4 |
| 20260508080012 | 57 | 101 | 1.0 | 8.0 | 0.00 | 0.00 | 0.00 | 37 | 1007.6 |
| 20260508074508 | 57 | 101 | 1.0 | 5.0 | 0.00 | 0.00 | 0.00 | 37 | 1007.8 |
| 20260508073007 | 57 | 144 | 1.0 | 5.0 | 0.00 | 0.00 | 0.00 | 37 | 1007.7 |
| 20260508071503 | 56 | 89 | 1.0 | 6.0 | 0.00 | 0.00 | 0.00 | 41 | 1007.6 |
| 20260508070056 | 56 | 111 | 4.0 | 6.0 | 0.00 | 0.00 | 0.00 | 45 | 1007.9 |
| 20260508064604 | 56 | 95 | 0.0 | 2.0 | 0.00 | 0.00 | 0.00 | 48 | 1007.8 |
| 20260508063107 | 56 | 95 | 1.0 | 4.0 | 0.00 | 0.00 | 0.00 | 46 | 1007.7 |
| 20260508061559 | 56 | 115 | 1.0 | 5.0 | 0.00 | 0.00 | 0.00 | 44 | 1007.8 |
| 20260508054646 | 56 | 115 | 4.0 | 7.0 | 0.00 | 0.00 | 0.00 | 37 | 1008.2 |
| 20260508053044 | 57 | 119 | 4.0 | 9.0 | 0.00 | 0.00 | 0.00 | 36 | 1008.3 |
| 20260508051556 | 57 | 102 | 4.0 | 14.0 | 0.00 | 0.00 | 0.00 | 34 | 1008.5 |
| 20260508050038 | 57 | 123 | 4.0 | 9.0 | 0.00 | 0.00 | 0.00 | 34 | 1008.6 |
| 20260508044540 | 57 | 122 | 3.0 | 12.0 | 0.00 | 0.00 | 0.00 | 35 | 1008.6 |
| 20260508043034 | 57 | 150 | 1.0 | 12.0 | 0.00 | 0.00 | 0.00 | 35 | 1008.4 |